User: anonymous   Login
Location: Newark
(47.0000°N, 7.6833°E)
Time: 20:04:21
(UTC+00:00)
Language:

AAUSAT CUBESAT 2 - Orbit

View from above orbital plane
View from above orbital plane
View from above satellite
View from above satellite

Ground track
Ground track

The orbit data is extracted from the following two-line orbital elements,

1 32788U 08021F   19292.95594771  .00000143  00000-0  18105-4 0  9996
2 32788  97.4951 303.2274 0012672 140.9255 219.2884 14.94824086623337
Epoch (UTC): 19 October 2019 22:56:33
Eccentricity: 0.0012672
inclination: 97.4951°
perigee height: 574 km
apogee height: 592 km
right ascension of ascending node: 303.2274°
argument of perigee: 140.9255°
revolutions per day: 14.94824086
mean anomaly at epoch: 219.2884°
orbit number at epoch: 62333

The dashed part of the orbit path shows where the satellite is in the earth's shadow,  

DLR